Theta_e
299 291 288 288 289 292 294 295 295 296 296 295 295 293 293 293 293 297 298 300 301 298 296 295 310 311 311 312 313 315 315 315 315 315 315 316 317 317 318 318 319 320 321 325 326 329 330 331 332 333 334 334 334 334 334 333 333 333 332 331 330 332 334 333 332 331 330 329 330 330 329 328 330 331 332 333 333 333 335 333 331 330 330 330 332 332
297 289 290 292 293 294 295 296 296 295 296 295 294 293 292 294 292 296 297 300 301 297 294 308 311 310 310 311 313 315 315 313 314 315 316 316 318 319 318 318 320 322 325 326 326 328 330 331 332 333 333 333 331 332 333 333 333 332 332 333 334 334 333 332 332 332 330 329 329 329 329 330 330 330 331 331 332 330 330 329 328 328 327 326 327 330
289 288 292 294 295 296 296 296 297 295 294 294 292 292 291 293 296 298 298 299 300 298 299 310 308 308 311 312 313 314 315 315 317 318 318 317 318 318 319 319 320 321 322 325 326 328 329 331 332 332 332 332 332 332 332 333 333 333 332 332 332 332 332 332 334 332 330 330 330 328 328 330 330 333 334 332 329 328 326 327 327 327 326 326 325 325
286 289 294 296 295 294 295 296 296 295 295 292 292 289 288 293 292 289 296 298 300 298 306 308 306 307 310 312 313 316 317 318 320 321 319 319 319 319 320 320 320 321 322 323 325 327 329 330 331 331 331 331 332 331 332 333 333 332 331 330 331 331 331 332 333 333 331 331 331 331 332 332 332 331 332 330 328 326 325 323 324 324 324 323 322 322
288 293 297 296 295 295 293 294 294 292 290 293 293 292 291 292 294 293 293 295 300 313 313 310 306 304 307 307 309 314 319 320 321 321 320 321 322 322 322 322 322 321 323 324 325 327 328 329 329 330 331 332 331 331 332 332 332 332 330 330 330 330 329 331 333 332 332 332 331 331 330 331 332 332 330 327 325 326 325 322 321 320 321 322 321 320
291 295 297 295 294 295 294 292 293 292 289 291 294 294 294 295 294 295 296 295 300 302 308 306 292 296 306 308 309 313 316 316 318 317 317 318 319 320 319 320 323 323 324 324 325 326 328 328 329 330 331 331 331 331 333 333 332 332 331 330 329 330 331 331 331 331 331 330 329 327 327 326 325 323 323 323 322 322 321 320 321 320 320 320 319 318
292 296 295 294 294 294 294 292 293 294 289 288 291 297 296 296 295 295 295 293 288 293 304 306 293 289 304 306 309 312 314 314 316 315 316 317 317 317 317 319 320 321 324 326 326 327 328 328 328 329 330 330 330 331 332 331 332 332 331 330 331 331 329 330 328 329 330 328 328 327 327 327 324 322 322 323 324 323 322 322 320 319 318 317 316 316
295 294 294 294 294 293 292 290 293 294 291 289 296 296 297 295 294 294 294 292 290 298 306 301 299 295 295 304 311 313 312 313 313 314 316 317 318 317 318 319 319 322 324 325 325 326 327 328 329 328 329 330 330 330 331 331 332 331 331 330 330 330 330 329 329 329 328 327 328 328 327 326 323 322 321 322 322 323 322 320 319 319 317 315 315 315
294 292 293 292 292 291 290 293 295 296 293 292 296 297 295 296 295 296 294 292 294 295 292 292 299 291 292 301 311 312 309 311 312 313 315 316 316 317 317 318 321 324 324 325 324 325 326 327 328 328 328 330 330 330 330 330 331 330 330 329 328 328 329 330 330 330 330 330 327 326 325 323 324 323 322 322 322 320 319 317 317 317 316 314 314 314
295 294 295 295 292 290 293 295 296 296 293 296 298 298 298 297 297 296 293 291 293 292 286 292 296 287 289 302 306 309 309 308 310 312 314 313 314 315 316 318 321 324 324 325 325 326 326 327 328 328 329 329 329 330 331 330 329 327 326 326 326 326 326 326 328 329 329 327 326 324 323 322 322 321 321 320 319 317 316 314 313 314 313 312 311 312
295 299 299 296 293 294 295 296 297 296 297 299 298 296 295 295 293 294 293 291 290 283 287 296 297 294 284 299 304 304 305 310 311 312 313 314 314 315 316 317 321 323 323 323 325 326 326 327 328 328 327 327 328 329 329 327 326 325 324 323 322 322 322 322 322 322 322 324 325 323 323 322 321 321 320 319 317 315 314 312 312 312 311 311 310 310
295 295 295 296 300 299 297 295 298 299 298 297 293 292 290 290 292 290 288 292 282 279 288 298 298 296 285 293 305 310 312 313 312 311 311 312 313 315 315 317 321 323 322 323 324 324 324 325 326 326 325 325 325 325 325 324 323 323 322 321 320 320 320 320 320 320 320 320 320 321 322 322 322 321 320 319 317 315 313 312 311 311 310 309 310 309
290 292 295 297 302 298 296 293 294 297 297 295 292 290 285 281 284 280 283 280 281 279 289 295 297 292 290 298 306 309 310 313 315 315 312 312 313 314 316 317 320 324 323 323 323 323 323 323 323 323 323 323 323 323 323 323 322 320 319 318 317 317 318 319 319 319 319 318 318 318 318 318 319 317 317 317 316 316 314 312 311 309 308 308 307 307
286 293 294 295 297 300 297 290 288 290 292 292 290 286 283 278 279 276 279 281 282 290 296 294 296 289 293 298 309 308 311 315 316 316 315 313 314 314 317 318 320 323 323 323 323 323 323 323 323 323 322 322 322 322 322 321 320 319 318 317 316 316 316 317 317 317 317 317 317 317 315 315 315 315 315 314 313 313 314 313 310 309 307 306 306 306
278 282 290 293 289 298 297 295 293 290 290 292 294 290 284 284 283 276 279 278 280 284 291 296 290 284 287 290 309 310 313 316 317 317 316 317 316 316 318 319 320 323 322 323 323 323 323 323 322 322 322 322 322 322 321 319 318 317 316 316 316 315 316 316 314 313 313 314 314 314 314 314 314 313 313 314 314 313 312 310 308 307 307 306 306 306
286 286 292 297 296 298 295 298 298 294 291 292 294 293 288 285 287 280 283 286 286 284 286 289 285 295 292 305 310 312 314 316 317 316 317 316 317 317 317 318 320 322 322 322 322 322 323 322 321 321 321 321 321 321 319 318 317 316 316 315 315 314 314 314 313 312 312 312 312 312 312 313 314 314 313 312 313 313 312 310 309 307 306 307 306 307
287 283 294 296 297 296 297 298 297 297 283 289 292 287 288 295 293 285 287 292 284 284 281 285 292 299 305 306 310 312 313 314 315 316 316 316 317 317 318 320 320 321 321 321 321 321 321 321 321 321 321 321 320 319 318 317 317 316 315 314 313 313 313 312 312 311 311 311 311 312 312 312 312 312 311 311 311 312 311 309 308 307 307 307 307 308
283 283 294 294 292 295 297 297 297 297 296 291 287 287 298 299 297 289 281 284 283 279 281 290 289 293 294 286 305 309 309 311 313 314 315 316 317 317 317 319 319 320 320 321 321 321 321 321 320 321 321 320 319 318 318 318 318 316 315 314 312 311 310 310 310 310 311 311 310 310 311 311 311 311 311 311 311 311 309 308 307 306 306 305 307 308
291 283 289 294 294 296 298 297 294 297 298 291 289 298 292 284 283 287 284 279 278 278 280 285 294 293 293 294 302 305 306 308 310 313 314 314 315 316 317 318 319 319 319 319 319 319 319 320 320 320 319 319 319 319 319 319 317 315 314 313 312 310 310 310 310 310 311 312 312 311 311 311 311 311 311 312 312 309 307 306 305 305 305 305 307 307
295 285 286 293 293 294 295 292 282 288 295 297 297 295 297 291 288 284 285 285 284 279 280 281 290 284 296 298 304 305 307 309 310 311 313 314 315 316 316 318 317 317 318 318 318 318 319 319 320 320 319 318 318 318 318 317 315 314 313 312 311 311 310 310 310 310 309 310 311 311 312 312 312 312 312 310 308 306 305 306 305 304 304 304 306 303
287 293 283 290 295 294 287 291 288 288 286 289 289 288 292 293 294 292 293 289 283 279 280 279 280 285 295 303 306 307 308 309 310 311 313 314 315 316 317 317 317 317 317 317 317 318 319 319 319 319 319 319 319 319 318 315 314 313 312 311 310 309 309 309 309 309 309 310 310 310 309 309 310 310 310 308 307 306 305 306 306 304 305 304 303 303
287 288 283 288 289 287 289 294 294 293 292 289 287 287 290 288 285 282 281 293 292 285 280 281 279 288 301 306 307 309 310 310 312 313 313 314 315 315 317 317 317 317 317 317 317 318 318 319 319 319 319 318 318 317 316 315 314 312 311 310 310 309 309 309 309 309 309 310 310 309 308 308 308 308 306 305 305 305 305 304 304 304 303 302 303 302
295 294 289 284 287 287 292 295 297 297 295 294 292 289 293 290 289 284 280 283 291 288 292 287 282 285 301 307 306 309 310 311 312 313 313 314 314 315 317 317 318 318 317 318 317 317 318 318 318 318 317 317 316 316 314 313 313 311 310 309 309 309 309 309 309 309 309 308 308 308 308 308 307 307 305 304 304 304 304 304 304 304 303 302 302 302
306 290 287 288 290 291 294 295 296 297 295 292 293 292 291 288 290 287 285 287 285 287 285 285 282 287 300 308 307 309 311 312 313 313 313 314 314 316 317 317 316 316 317 317 318 318 318 317 317 316 316 316 315 314 313 312 312 311 310 309 309 308 309 309 309 309 308 308 307 307 307 307 306 305 305 304 304 303 303 303 303 304 303 303 302 301
289 293 289 282 282 284 288 290 290 294 294 290 288 291 292 292 294 293 294 292 285 288 288 283 281 286 300 310 308 309 309 309 311 313 314 313 315 316 316 316 317 316 316 316 316 317 316 316 315 315 315 315 315 313 312 311 311 310 309 309 308 308 309 309 309 309 308 307 307 307 306 305 304 304 304 303 303 303 303 303 303 304 302 302 301 300
291 291 289 282 279 275 275 277 280 284 287 289 294 292 293 292 292 290 284 285 283 287 291 284 285 295 302 304 305 307 308 309 312 313 315 316 315 315 316 316 316 316 315 315 315 315 314 314 315 314 314 314 314 313 311 311 310 310 309 309 308 308 308 309 309 308 308 307 306 306 305 304 304 304 303 303 303 303 303 303 302 302 302 302 300 299
294 298 294 290 285 282 282 288 293 293 290 285 291 292 291 293 293 293 288 283 282 286 286 290 295 296 298 301 304 305 307 308 310 312 313 314 315 316 316 315 315 315 315 314 314 314 314 314 313 314 314 314 314 312 311 311 310 310 309 308 308 308 308 308 307 307 306 306 306 305 304 304 304 303 303 303 303 303 303 302 302 302 301 302 300 299
295 289 293 295 294 292 292 292 292 292 289 289 290 290 291 292 292 291 283 282 290 287 283 294 298 296 297 302 302 305 308 309 311 312 313 314 314 315 315 315 313 314 314 314 314 313 313 313 313 313 313 313 313 312 311 311 311 310 309 308 308 308 307 308 307 306 306 306 305 304 304 304 304 303 303 303 303 302 302 302 302 302 302 302 299 298
293 285 293 294 292 294 295 293 293 292 291 291 291 291 291 292 291 289 290 293 292 282 283 295 298 297 297 298 302 306 309 309 311 313 315 315 315 315 314 313 313 313 313 313 313 313 312 312 312 312 312 312 312 312 310 310 310 309 308 308 307 307 307 307 306 306 305 305 304 304 304 303 303 303 303 302 302 301 301 301 301 301 302 302 301 300
293 288 295 296 293 293 295 295 293 292 291 291 291 291 292 292 291 292 294 296 294 291 297 299 297 297 298 300 305 308 310 311 312 315 315 314 314 314 313 313 313 313 313 313 312 312 312 312 312 312 312 312 312 311 311 309 308 308 307 307 307 307 307 307 306 305 304 304 303 303 303 303 303 302 302 301 301 301 301 301 301 301 300 300 300 299
293 285 295 296 290 292 295 297 294 293 291 289 291 292 292 292 292 293 293 294 296 294 298 299 296 294 297 304 305 308 312 313 313 313 314 314 314 313 312 312 312 312 313 313 313 312 312 312 312 312 312 311 311 311 310 308 308 308 307 307 307 307 307 306 305 304 304 303 303 303 303 302 302 302 301 301 301 300 301 301 301 300 300 300 299 298
295 286 295 294 286 287 295 296 297 295 292 291 289 291 291 291 290 291 288 293 292 291 295 295 291 291 296 305 307 311 311 311 311 312 313 313 313 313 312 311 311 311 312 312 312 312 312 312 312 312 311 311 311 311 309 308 308 307 306 306 306 307 307 305 304 303 303 302 302 302 301 301 301 301 301 301 300 301 301 301 300 300 299 299 298 298
291 290 286 286 284 285 294 295 295 296 292 288 284 290 293 294 294 295 295 296 295 296 291 285 287 292 298 306 308 309 310 310 311 312 312 313 313 313 312 311 311 312 312 312 311 311 311 312 312 312 312 312 311 310 308 308 307 306 306 306 307 307 305 304 303 302 302 301 301 301 301 301 301 300 300 299 300 301 300 300 300 299 299 299 299 297
294 294 287 290 283 285 293 294 293 287 282 283 295 301 297 293 293 293 292 294 297 297 293 292 293 300 304 305 308 308 309 310 312 314 315 314 312 312 312 312 312 312 312 312 312 312 312 312 312 312 312 312 310 310 309 309 308 307 307 307 307 305 304 303 302 301 300 300 300 300 300 300 300 299 299 299 300 300 299 299 299 299 299 299 299 298
293 292 286 291 284 284 289 289 283 278 282 295 302 304 305 301 299 295 295 297 300 298 299 296 296 298 304 307 310 310 312 313 314 314 314 315 314 313 312 312 312 311 312 312 312 312 312 312 311 311 311 311 310 309 309 308 308 307 307 306 305 304 303 302 300 299 299 299 299 299 299 299 298 298 299 299 299 299 298 298 298 298 298 298 298 297
287 287 287 286 285 287 286 284 278 279 292 301 300 302 305 300 297 295 293 297 298 296 298 295 296 296 300 304 310 312 312 313 314 315 315 315 315 314 313 312 312 312 311 312 312 312 312 311 311 311 311 311 309 309 308 307 308 307 306 306 304 303 302 301 299 298 298 298 298 298 298 298 298 298 298 299 298 298 298 297 297 297 297 297 296 297
295 292 288 285 287 281 282 281 283 294 295 294 295 297 298 294 295 290 284 289 297 296 298 296 296 298 298 305 308 309 311 313 310 310 315 315 315 315 315 314 314 313 313 313 313 312 313 312 311 311 311 310 310 309 307 307 307 306 305 304 303 301 300 299 298 297 297 298 298 298 298 298 298 298 298 298 298 297 297 296 296 296 297 296 295 295
296 289 289 285 284 284 282 282 283 283 283 284 295 301 303 305 304 301 293 287 298 300 299 297 296 296 298 299 306 308 310 308 304 305 312 315 315 315 315 315 315 314 313 313 313 313 312 312 312 312 310 309 309 307 307 307 307 305 304 302 301 300 299 298 297 297 297 297 298 298 298 298 298 298 298 298 297 296 296 296 296 296 297 295 294 293
297 295 291 287 284 284 283 281 280 280 282 290 297 300 302 303 303 300 291 286 294 299 300 298 297 297 298 297 301 305 307 302 302 307 312 314 314 314 313 313 314 314 313 313 312 311 311 311 311 311 309 309 307 306 307 306 306 305 303 302 300 299 298 297 297 297 297 297 297 298 298 298 298 298 298 297 296 297 296 296 296 297 296 295 294 294
293 290 286 285 284 283 282 281 281 283 285 292 298 300 301 304 302 292 283 281 293 302 304 300 298 298 298 298 302 303 304 297 302 308 313 314 314 314 313 313 313 312 312 313 312 312 312 312 311 309 307 307 306 306 306 306 305 304 303 302 300 298 297 296 297 297 297 297 298 297 297 298 298 298 298 297 297 297 296 297 297 296 296 295 295 294
287 286 285 282 282 283 285 282 284 286 291 299 301 300 299 304 297 284 281 285 301 305 307 305 299 299 300 303 303 298 301 303 308 313 314 314 313 313 313 314 314 313 312 312 311 309 311 311 311 308 307 307 306 306 306 306 305 304 303 301 299 297 296 296 297 297 297 297 297 297 297 297 298 298 298 297 297 297 297 297 296 296 296 295 295 294
286 285 285 285 284 282 282 281 282 286 293 302 301 304 303 297 286 282 292 303 306 306 306 306 301 300 301 308 305 305 307 310 314 315 314 314 313 313 313 313 313 312 313 311 309 310 311 311 310 307 307 307 306 306 306 305 304 303 302 300 297 296 297 297 297 297 296 297 297 297 297 297 298 299 299 298 297 296 296 296 297 296 295 295 295 295
285 283 281 282 283 285 284 282 281 281 291 306 303 301 300 287 286 297 305 306 309 307 306 306 305 304 305 307 309 311 311 312 313 313 313 313 312 312 312 311 311 311 310 309 309 310 310 310 308 307 306 306 306 306 305 305 303 302 301 298 296 297 297 297 297 297 297 296 297 297 297 298 298 298 299 298 298 297 296 296 296 296 296 296 295 295
293 285 284 284 286 281 282 280 281 286 293 307 300 289 299 302 303 307 307 303 306 306 306 307 308 309 311 310 310 311 311 311 312 312 312 312 312 312 312 312 311 311 311 311 311 310 310 310 308 306 306 306 306 306 306 304 302 301 299 297 297 297 297 297 297 296 296 297 297 297 298 298 298 298 298 298 297 297 296 295 295 296 296 296 296 294
293 290 288 283 292 286 285 291 297 301 305 308 308 305 307 309 310 311 309 307 306 306 309 308 309 310 311 312 312 311 310 311 311 312 312 311 311 311 311 311 311 310 310 310 310 309 309 309 306 306 305 306 306 306 305 304 302 300 297 297 297 297 297 296 296 296 296 296 297 297 298 297 297 297 297 297 297 296 296 295 295 294 296 296 296 295
299 303 299 294 294 300 300 302 304 304 306 307 308 308 308 308 310 311 309 308 309 310 310 309 310 312 312 312 311 309 311 311 311 311 311 311 311 311 311 312 311 311 310 310 309 309 309 308 306 305 304 305 306 305 304 303 301 298 297 297 297 297 297 296 296 296 296 296 296 297 297 297 297 296 296 297 297 296 295 295 295 295 295 296 296 295
300 301 299 292 296 290 287 299 301 303 306 305 306 308 308 309 309 310 309 309 310 311 311 313 312 312 312 312 311 310 310 311 310 310 310 310 311 311 311 310 310 310 310 309 309 308 308 307 306 305 304 303 304 303 303 302 301 299 298 297 297 297 297 297 297 296 296 296 296 296 296 296 295 295 295 296 296 296 296 296 296 297 296 296 296 295
293 302 295 297 293 288 292 300 302 304 305 308 305 303 305 307 308 308 307 309 310 309 310 311 312 313 312 311 310 311 310 310 310 310 310 310 311 311 310 310 310 309 310 310 309 309 307 306 306 304 304 303 302 302 302 301 299 299 298 298 298 298 297 297 296 296 296 296 296 295 295 295 292 294 294 295 296 296 295 296 297 296 295 294 294 293
299 300 288 295 292 298 300 301 301 301 302 304 306 307 308 307 307 307 308 309 309 308 309 311 311 312 311 310 310 310 310 309 310 310 310 309 310 310 310 310 310 310 310 309 309 308 307 306 306 305 304 303 303 302 300 300 300 299 298 298 298 298 297 296 295 296 295 295 295 295 295 295 295 295 295 295 295 295 295 295 296 294 293 293 292 293
299 293 298 292 287 286 290 295 299 290 290 301 305 306 307 309 308 307 307 307 308 307 308 309 311 312 312 311 310 310 309 309 309 310 310 309 310 309 309 310 310 309 309 309 310 308 306 306 305 305 304 302 302 300 300 299 299 299 298 298 298 298 297 296 296 295 295 295 295 295 295 295 295 295 295 294 293 292 291 290 294 294 292 289 290 291
299 301 297 288 286 287 298 302 302 300 300 304 306 308 307 307 308 308 307 307 307 308 308 307 308 309 310 311 311 310 309 309 309 310 310 309 308 309 310 310 309 309 308 309 308 305 305 305 305 304 301 301 300 300 299 299 299 299 299 298 298 298 297 296 295 295 294 294 294 294 295 295 295 295 295 295 294 292 290 291 290 289 290 290 290 290
Wind_Speed
4 8 10 14 15 15 13 11 8 8 10 7 8 6 9 10 7 8 10 11 11 10 15 6 12 9 8 7 8 5 7 10 10 9 9 9 10 10 9 8 6 6 6 4 5 6 6 5 4 5 7 8 9 8 8 8 6 6 7 8 8 6 5 6 6 5 6 5 5 4 4 6 4 5 6 5 3 3 6 8 8 9 9 10 9 7
7 8 14 16 13 11 11 10 7 9 14 9 9 10 9 11 10 11 11 13 12 8 7 13 13 9 5 5 5 5 9 11 12 11 10 10 10 9 10 10 7 6 5 7 6 6 7 5 6 6 6 9 10 8 8 8 6 5 6 7 8 6 4 4 4 5 4 3 4 6 4 5 5 5 5 6 6 7 7 10 10 10 10 9 7 6
12 17 18 12 9 8 8 10 10 12 13 13 8 8 8 11 11 13 17 12 12 10 7 16 13 8 7 6 5 5 5 6 6 11 13 13 12 10 9 9 9 7 6 7 7 8 7 6 7 6 6 7 8 8 7 6 6 6 6 6 6 6 5 4 4 4 4 3 3 4 4 5 5 3 5 7 7 8 10 10 10 10 8 7 7 6
13 17 12 8 8 11 9 10 14 14 13 10 9 4 7 8 10 9 15 10 14 9 11 12 13 6 4 4 4 4 7 6 5 8 9 8 13 13 11 10 10 8 6 7 8 9 8 7 6 6 6 7 7 7 7 7 7 6 5 5 6 6 5 5 4 4 4 5 4 3 6 4 6 7 8 9 9 10 11 11 10 10 8 8 7 7
16 4 8 8 11 12 11 10 14 12 10 12 10 8 7 7 11 11 10 4 8 14 20 16 11 4 2 4 4 2 9 10 7 10 9 6 8 12 11 8 8 11 9 7 7 7 8 7 7 6 6 7 7 7 7 7 6 5 6 6 5 5 5 4 5 6 6 6 5 4 2 3 7 7 7 8 8 8 9 9 9 8 7 7 7 6
11 7 13 14 11 11 13 12 15 12 9 9 12 12 10 10 8 13 11 8 10 4 7 17 5 1 4 5 7 6 8 8 8 11 9 10 13 14 12 10 8 8 11 12 9 8 8 7 7 7 8 7 7 6 6 5 5 5 6 4 3 4 4 4 4 4 5 5 7 6 6 6 6 7 6 7 8 8 7 7 6 7 6 6 6 6
6 9 12 13 11 11 13 12 12 13 8 8 10 10 14 17 13 9 13 8 6 11 10 8 11 2 3 8 9 7 10 11 8 10 9 10 10 11 10 7 6 7 6 7 8 6 8 8 8 8 7 7 7 6 6 6 5 5 5 4 4 3 3 3 3 3 4 6 5 6 5 6 7 9 6 7 8 8 7 7 8 6 7 7 7 5
8 13 13 13 13 15 14 15 13 15 10 10 10 8 13 15 14 16 5 3 9 4 10 6 8 8 6 8 10 10 11 12 11 10 10 10 11 13 12 12 7 8 9 10 11 9 7 7 7 9 8 7 7 7 8 7 6 6 5 5 4 3 3 3 3 3 3 6 5 6 6 7 8 8 8 8 8 7 7 8 6 5 6 6 5 5
12 11 17 17 16 13 14 14 11 11 11 8 9 12 12 11 15 13 7 3 3 10 13 8 8 6 5 6 11 12 12 11 12 12 11 13 13 13 14 16 15 13 12 10 10 10 9 8 8 8 8 8 9 8 8 7 7 6 6 6 4 4 4 5 4 4 3 4 6 7 7 8 7 8 8 7 7 8 8 8 4 6 6 5 6 6
8 10 12 14 13 12 9 11 14 13 13 11 8 10 13 10 9 9 3 4 3 11 9 9 7 4 2 9 11 9 9 13 13 13 12 14 15 13 12 12 10 12 11 10 9 9 9 9 9 9 9 9 8 8 8 9 8 7 5 6 5 4 2 2 2 3 3 6 6 7 8 9 8 7 7 7 8 8 7 7 6 6 6 5 5 6
8 11 9 10 13 11 9 10 16 14 8 5 13 11 13 9 5 3 3 3 1 4 7 12 11 9 3 8 14 12 11 15 12 10 9 12 12 12 11 13 9 13 12 11 11 10 11 9 10 9 9 8 9 9 10 8 7 6 5 6 6 4 5 5 6 7 7 5 5 6 6 8 9 8 8 8 8 8 7 6 5 5 6 5 5 6
12 14 12 7 10 10 9 10 12 15 9 8 8 11 4 6 3 3 3 1 3 4 6 14 11 12 5 6 8 14 13 17 19 20 18 16 16 13 12 12 9 12 13 13 11 12 12 12 11 9 10 10 11 10 9 7 6 6 6 6 7 6 6 6 6 7 7 7 7 6 6 6 7 7 7 8 9 8 8 6 5 6 6 6 5 5
12 14 11 10 11 13 13 7 11 14 13 12 9 5 7 3 4 6 3 4 2 5 5 10 13 5 7 10 16 13 10 15 16 18 21 19 16 14 14 14 11 11 14 13 12 12 12 12 11 12 10 11 11 10 9 7 7 6 6 7 9 7 6 6 6 7 7 7 7 7 8 8 8 9 9 9 9 7 6 6 6 6 6 5 6 5
5 10 16 12 11 13 10 11 7 12 12 12 13 6 6 3 6 5 3 2 1 2 1 4 6 4 4 2 16 17 15 18 17 16 18 21 19 17 15 14 11 10 13 12 13 12 12 12 11 11 11 10 10 10 8 9 8 6 6 6 8 7 6 6 7 7 8 8 8 8 9 9 9 9 9 8 9 7 7 7 6 6 6 5 4 4
5 8 15 15 7 14 13 12 9 6 8 11 9 6 5 4 3 4 2 4 4 3 2 2 3 2 4 4 17 17 13 14 14 15 14 15 16 15 13 13 10 11 12 13 13 12 13 12 12 11 11 10 10 10 9 9 8 8 7 6 7 7 6 7 8 8 9 8 9 9 9 9 9 9 8 7 7 7 9 7 7 6 6 5 4 5
10 3 9 17 3 16 15 12 8 7 4 6 5 1 3 7 5 3 4 2 2 2 1 1 2 3 2 0 8 11 13 13 15 16 16 16 16 16 15 15 13 13 13 13 13 12 14 12 12 11 10 10 10 9 10 10 9 8 7 6 7 7 7 8 8 8 8 8 8 9 10 10 10 8 7 7 7 8 7 7 7 6 5 5 4 4
8 5 14 16 9 10 15 9 10 8 6 5 5 8 6 4 5 1 0 2 3 3 3 2 3 5 8 11 6 15 15 15 16 16 16 16 17 18 16 15 15 14 13 13 14 12 13 12 11 11 11 10 9 11 10 10 9 9 8 8 8 8 7 8 8 8 8 8 9 8 9 9 9 9 8 8 8 7 6 6 5 5 3 4 4 4
8 5 11 14 17 4 6 4 7 2 3 5 8 5 2 0 4 6 4 0 2 3 3 5 6 4 5 1 3 10 14 14 16 17 15 15 16 16 14 15 15 15 14 13 13 15 13 13 12 12 10 10 11 12 11 11 9 9 9 9 9 9 9 7 8 8 7 8 8 8 9 9 9 8 7 7 6 5 7 5 4 3 4 4 4 4
3 1 6 15 7 2 1 1 4 7 5 6 8 6 9 5 8 2 4 4 5 3 1 0 10 6 7 9 8 12 16 14 15 15 15 16 15 16 15 16 15 15 14 13 14 14 13 11 13 11 11 11 11 11 11 11 10 10 8 9 9 9 8 7 6 6 6 6 6 6 8 8 7 6 6 4 5 6 6 5 4 4 4 4 4 5
3 1 1 6 7 3 2 1 2 5 8 8 4 9 6 2 1 3 4 3 7 2 2 3 8 3 5 12 19 16 18 18 17 17 18 18 17 16 16 17 17 16 15 14 14 14 14 12 13 12 13 12 11 11 11 11 10 11 10 10 9 8 7 7 7 6 6 5 6 7 7 7 7 6 5 5 7 6 6 5 5 5 5 5 6 6
4 2 0 4 7 8 4 3 7 7 5 7 3 4 7 3 3 4 1 5 5 3 6 2 1 3 5 12 21 20 21 19 21 20 17 17 17 16 18 18 17 17 16 16 15 15 16 14 12 12 12 11 11 10 10 11 11 10 9 10 10 10 8 7 7 6 5 5 6 7 7 6 7 8 8 8 6 6 5 4 4 4 4 5 5 5
1 6 2 4 5 5 9 10 9 7 7 5 6 3 7 8 5 4 4 1 2 5 3 4 5 3 5 6 18 23 21 20 19 20 18 19 19 16 17 17 17 16 15 15 14 15 15 14 14 11 10 11 11 10 11 11 11 11 10 9 9 9 8 8 7 6 5 5 6 7 7 6 6 7 7 8 7 6 6 5 5 5 6 6 6 6
4 3 6 5 7 8 10 8 9 11 7 5 7 5 8 5 3 2 3 5 0 2 7 7 4 3 5 2 11 19 18 20 19 19 18 17 16 15 16 16 15 16 16 15 14 13 14 13 13 12 13 12 12 11 12 12 11 11 10 10 9 9 8 7 5 4 6 8 8 7 7 8 8 8 8 8 6 6 6 5 5 5 6 6 6 7
7 2 7 8 5 5 9 4 14 14 5 5 7 3 4 6 6 5 2 5 5 3 4 1 3 4 5 1 13 17 18 17 14 16 18 16 11 16 17 17 16 15 14 14 13 12 13 12 13 13 13 12 11 11 12 11 11 11 10 9 9 9 9 7 5 7 8 8 7 7 8 8 7 8 8 7 6 6 5 5 5 4 6 6 7 8
1 0 4 5 3 1 2 1 5 9 7 3 3 6 4 2 8 8 3 2 5 3 8 7 4 3 5 3 13 16 16 16 15 14 17 16 13 16 17 16 15 16 15 15 15 14 14 14 15 13 12 11 11 10 11 12 12 11 10 9 9 9 8 7 7 9 8 7 8 8 8 7 7 7 7 7 7 7 6 5 5 4 6 7 7 7
2 3 3 4 5 7 7 10 12 13 12 1 1 6 7 8 5 8 6 0 3 3 4 4 1 5 3 2 12 15 15 14 14 15 13 17 18 17 15 15 16 16 16 16 15 15 16 16 14 13 12 11 11 11 12 11 11 11 10 10 8 9 9 7 7 9 8 8 9 8 8 7 7 7 7 7 7 7 7 7 6 7 6 8 9 9
3 1 2 3 7 7 4 0 2 2 1 4 3 4 5 8 3 3 6 4 5 2 1 3 9 2 2 1 15 14 15 16 14 14 15 13 14 16 17 16 16 16 17 18 16 15 14 14 16 15 13 11 11 12 12 12 12 11 11 11 10 9 8 7 8 8 8 9 8 8 8 8 7 7 7 7 7 6 6 7 7 8 8 8 9 9
2 0 3 2 3 4 6 4 7 8 5 5 4 5 5 9 7 2 3 4 6 6 3 1 10 12 7 2 6 14 13 15 15 15 14 13 14 16 16 15 15 14 14 14 15 17 17 16 16 15 13 12 11 13 12 12 11 11 12 12 10 10 8 7 8 8 8 9 9 8 9 7 7 7 7 6 6 6 6 6 6 6 7 8 9 9
3 2 3 1 4 5 4 7 9 13 9 7 10 5 5 9 7 4 3 5 4 5 3 4 8 13 8 6 13 15 15 17 18 18 17 17 15 14 16 17 17 17 16 16 16 16 17 17 16 15 14 13 13 14 14 13 11 11 11 10 10 10 9 8 9 9 9 9 9 8 8 7 6 6 7 8 7 7 7 7 7 7 7 8 8 7
2 0 0 1 3 6 7 12 9 15 10 11 13 7 6 9 8 5 4 1 4 7 11 8 5 9 4 5 14 17 14 13 11 12 13 14 17 18 18 17 17 17 18 17 17 16 16 17 17 17 15 14 15 14 13 13 11 13 12 10 11 10 9 9 9 9 9 9 9 8 8 7 7 7 7 8 8 7 7 6 6 7 8 9 8 8
3 2 3 1 2 5 5 4 2 16 12 8 10 10 5 8 8 6 5 3 3 3 9 9 6 4 3 8 10 8 11 11 13 15 16 15 15 17 17 17 17 17 17 16 17 17 16 15 16 16 17 16 16 15 11 15 13 12 11 11 11 10 10 9 9 9 9 9 9 9 8 8 8 8 8 7 7 7 7 7 7 7 8 8 9 9
1 2 2 2 1 6 3 4 9 4 13 11 8 12 7 7 6 4 4 3 3 2 7 7 6 6 3 5 11 14 15 16 16 14 13 12 14 16 16 16 16 17 17 17 16 16 16 16 16 15 15 16 16 14 11 14 13 12 11 12 11 10 9 10 9 9 9 9 9 9 9 9 9 8 8 7 7 8 8 8 8 7 8 9 9 8
3 2 1 1 4 2 3 2 7 2 7 0 4 6 7 2 3 2 3 6 5 5 6 5 6 6 7 9 14 14 16 15 14 14 13 13 15 16 18 18 17 17 17 18 17 17 17 16 16 15 15 14 16 13 12 14 13 12 13 12 10 10 10 10 10 10 10 10 9 9 9 9 9 9 8 8 9 8 8 8 7 7 7 8 8 8
4 2 1 1 2 1 1 4 3 4 3 1 2 5 1 6 6 4 5 4 3 5 4 7 4 4 12 8 15 13 16 15 17 15 19 19 16 15 15 16 18 17 16 16 17 17 16 14 14 14 15 13 14 14 14 13 13 12 12 11 10 10 10 11 10 10 10 10 9 9 9 10 9 8 8 8 8 8 8 8 7 6 6 7 7 8
3 2 1 2 1 1 1 4 6 2 2 3 5 4 4 7 2 6 4 5 2 6 6 4 5 7 12 14 12 14 14 13 13 15 13 17 19 18 19 17 17 17 18 17 17 17 16 15 15 15 13 12 13 13 13 12 11 12 12 11 11 10 11 11 11 10 10 10 10 10 10 9 8 9 9 8 9 9 8 8 7 7 6 7 7 7
2 1 0 3 2 2 1 2 2 2 3 3 4 2 2 4 5 7 2 3 6 6 7 5 3 5 7 6 12 12 11 10 11 14 17 15 17 17 16 16 17 17 18 17 18 16 16 15 17 16 12 11 13 14 13 13 13 13 12 11 11 11 11 11 11 10 10 11 10 10 9 10 10 9 8 9 9 9 9 8 8 8 6 5 6 5
5 2 2 2 1 3 3 3 4 2 3 6 5 3 2 2 2 3 1 4 3 5 9 5 4 3 2 10 8 8 9 11 10 7 10 16 15 15 19 17 18 18 16 15 16 15 14 13 15 16 11 12 13 13 13 14 13 12 12 12 11 11 10 11 10 10 11 10 10 10 10 10 10 9 10 10 10 9 8 8 8 7 6 7 6 6
4 4 3 3 2 4 4 2 2 1 2 5 6 7 1 3 1 2 3 4 3 1 2 9 10 7 6 6 10 9 8 11 8 8 10 12 13 12 10 12 13 14 15 15 14 13 14 14 14 14 12 14 13 12 14 14 14 13 12 11 11 11 11 10 10 10 10 10 10 10 10 9 10 10 10 9 9 8 8 8 7 7 7 7 7 6
5 4 5 8 1 2 1 2 2 2 6 7 8 7 5 1 2 4 2 4 3 3 0 5 7 10 10 6 10 8 8 9 9 9 9 13 12 13 14 13 14 14 15 16 16 16 15 15 15 13 11 14 14 14 15 15 15 14 12 12 11 11 11 10 10 10 10 10 10 10 9 9 10 10 10 9 8 8 8 8 8 7 7 7 7 7
5 4 2 1 1 0 2 3 1 1 1 2 4 3 3 1 4 6 2 4 3 5 5 0 5 6 6 5 8 10 13 9 10 9 12 16 16 14 16 15 15 15 15 15 14 15 16 16 15 14 16 15 15 16 16 16 14 13 13 12 11 11 10 10 10 9 9 10 10 10 9 9 10 9 10 10 8 8 8 7 7 8 8 7 8 8
3 1 2 5 3 4 1 1 1 2 4 5 5 5 2 2 5 5 6 4 4 5 6 5 5 5 4 5 8 9 7 9 10 11 13 13 13 12 11 13 15 18 18 17 16 16 15 16 15 15 17 14 15 15 15 14 14 13 12 12 11 11 10 9 9 9 10 10 10 10 10 9 9 11 9 8 8 8 7 7 8 8 8 7 7 7
2 2 1 3 1 3 2 1 2 2 4 2 2 7 4 5 0 4 4 3 2 6 7 6 5 5 4 8 4 5 4 6 14 14 15 17 17 15 14 14 14 14 15 15 17 16 15 15 13 15 14 14 16 16 14 14 14 12 13 11 11 10 10 9 9 9 10 11 10 10 9 10 10 10 8 7 8 8 8 7 7 6 6 7 7 8
4 4 3 4 2 1 0 1 1 2 2 0 7 5 4 4 3 3 2 2 2 3 6 7 1 2 6 5 6 7 6 9 13 15 15 14 15 15 16 17 18 18 18 17 16 16 16 14 14 16 15 15 16 14 14 14 14 12 11 11 10 9 10 10 10 10 11 10 10 10 10 10 11 9 7 8 8 8 7 6 6 7 7 8 7 7
2 2 1 3 3 3 3 1 1 3 2 2 3 3 1 2 2 1 1 0 3 3 4 4 5 5 10 10 8 7 10 10 10 13 13 14 13 13 14 14 15 15 15 16 17 17 16 14 13 14 15 15 14 14 13 13 14 12 11 11 9 10 10 10 10 10 10 10 10 10 10 10 10 8 7 8 8 7 7 6 7 7 7 7 7 6
1 1 3 2 0 2 1 1 2 1 3 5 6 3 2 2 4 3 3 3 3 4 1 4 5 5 6 10 8 10 9 11 13 15 16 14 14 16 17 17 18 18 17 17 15 16 15 15 16 15 15 14 16 13 12 12 14 13 13 10 11 11 11 11 10 10 10 11 10 10 10 9 9 8 7 7 8 7 7 6 7 7 6 6 6 6
1 1 2 7 2 3 2 3 3 5 5 6 5 4 5 6 6 6 6 5 5 4 4 4 5 7 6 5 9 5 9 9 12 9 11 13 15 14 15 15 13 14 15 15 14 16 14 14 15 16 17 16 15 12 13 12 14 15 12 11 11 12 11 11 11 11 11 11 10 10 10 10 8 7 8 8 7 6 6 8 7 7 6 6 6 6
2 3 1 5 3 5 1 1 7 2 4 6 4 5 6 6 6 5 6 5 5 6 7 6 5 5 6 7 8 8 7 8 10 8 8 11 13 14 15 16 15 17 18 17 16 16 14 16 16 16 16 16 12 12 13 11 11 11 11 12 12 12 11 11 12 11 11 11 10 9 10 10 8 8 7 7 6 6 6 6 6 7 6 6 6 6
2 2 3 1 3 4 2 3 3 4 3 0 3 3 3 5 5 5 4 4 5 5 5 6 5 6 5 6 5 8 7 7 9 8 8 10 13 13 13 15 16 15 15 16 16 16 14 16 16 15 16 14 12 12 12 11 11 12 13 12 12 11 12 12 12 12 11 12 10 9 9 9 11 11 7 7 7 7 6 6 5 4 5 7 7 7
3 4 1 2 5 1 4 4 4 5 5 2 4 6 5 5 5 4 4 3 4 4 5 6 5 5 5 5 6 7 6 5 8 8 9 9 12 12 13 15 16 17 16 16 17 15 15 16 16 16 16 14 12 12 12 12 11 13 14 13 13 12 12 12 12 12 11 10 9 9 8 8 8 7 7 7 7 4 3 5 4 6 4 1 1 6
2 3 4 5 6 2 2 1 0 4 0 2 4 4 5 5 6 2 3 3 4 4 5 6 6 5 5 5 6 6 6 5 6 7 8 8 11 11 12 14 15 15 15 15 17 12 14 15 15 15 14 13 12 12 13 13 12 13 13 13 12 13 13 12 12 12 11 9 9 9 9 8 8 8 8 7 6 6 5 7 6 9 8 2 3 8
2 0 2 3 3 2 2 3 2 5 3 2 2 2 5 4 3 1 1 3 5 5 4 4 4 5 5 4 3 5 5 7 7 8 8 8 10 12 14 16 16 14 15 16 15 11 14 14 14 14 13 13 12 13 13 13 13 13 13 13 12 13 13 13 11 10 9 9 9 10 10 9 8 8 7 7 7 7 8 6 7 9 7 10 8 10
Wind_Direction
171 206 214 213 212 213 219 224 230 222 247 218 203 193 198 216 240 239 233 218 195 181 190 175 142 145 170 151 139 148 124 119 126 120 125 128 132 135 130 130 125 120 134 108 99 97 126 137 105 106 119 115 111 115 122 122 125 131 130 126 127 146 145 140 134 128 133 131 122 105 114 114 109 97 95 92 97 71 80 73 69 65 56 51 49 44
207 223 229 223 215 210 214 223 243 242 241 234 207 201 198 203 231 238 241 226 190 166 176 118 128 141 119 125 139 140 133 145 144 138 134 135 130 133 132 125 115 104 88 109 113 111 129 136 116 125 126 126 122 126 126 131 135 134 133 126 130 138 139 135 137 140 145 163 152 138 149 136 124 110 99 98 86 81 71 64 57 54 51 49 47 44
209 219 222 215 209 213 217 213 233 240 245 241 224 197 200 206 209 233 243 241 174 154 122 137 122 147 143 128 138 149 141 153 157 146 145 139 134 132 128 120 114 115 117 124 124 130 139 142 137 134 127 121 123 129 130 133 139 137 124 122 132 140 138 140 141 141 140 122 130 135 145 133 114 100 106 97 92 83 72 60 54 50 47 45 45 37
205 231 214 202 205 211 216 208 220 238 246 240 234 226 215 195 184 221 241 243 174 161 142 120 110 99 109 94 136 179 129 138 142 132 129 133 137 135 136 136 132 123 126 129 138 143 151 148 145 134 131 127 128 131 131 141 136 127 127 136 142 142 136 133 136 125 122 133 124 118 126 128 114 120 99 84 75 68 63 55 50 43 43 42 40 33
211 192 181 222 208 200 214 211 218 223 237 240 230 228 232 229 193 205 231 185 116 82 118 104 79 81 137 133 159 162 131 132 131 116 118 121 113 115 115 121 135 136 137 130 136 143 152 150 151 144 133 131 136 140 144 140 139 136 140 146 146 132 123 127 127 129 134 123 113 102 85 102 105 89 88 81 67 67 70 67 52 48 44 44 43 33
220 194 176 216 209 196 207 217 219 213 228 246 240 229 237 245 237 206 222 116 117 138 148 127 75 260 202 169 159 140 122 129 134 121 127 114 120 123 121 126 142 169 153 155 157 158 151 146 142 138 139 139 139 144 136 122 123 128 134 129 110 107 114 123 127 130 127 128 125 130 132 118 93 85 79 84 87 76 71 75 73 56 48 43 42 36
207 185 188 201 202 204 210 225 224 216 215 231 236 226 237 248 260 250 217 125 145 156 216 155 132 204 173 179 177 155 146 143 138 136 134 120 119 114 122 143 148 178 157 139 135 145 143 147 142 137 140 139 139 124 108 109 113 112 106 101 101 109 105 97 113 128 124 113 110 111 109 106 109 102 85 86 88 92 87 82 73 65 50 46 46 38
208 186 189 196 204 205 205 219 218 208 207 228 238 225 234 243 252 258 291 185 172 165 192 190 122 134 185 206 177 163 148 152 149 150 140 132 130 128 146 142 166 180 170 161 153 152 144 142 140 138 129 126 122 115 114 121 119 113 109 108 109 105 107 112 126 128 121 119 120 113 105 106 105 104 109 101 97 95 93 81 78 80 67 53 44 43
199 195 190 194 203 206 211 210 214 209 210 222 232 230 242 235 240 251 245 233 185 131 187 211 130 96 180 183 160 162 154 163 165 155 147 134 138 152 161 166 172 168 166 159 151 150 146 140 132 126 118 118 117 120 125 127 123 123 130 129 131 136 144 151 156 151 163 131 124 120 116 105 106 113 115 113 109 100 92 88 69 65 66 55 40 40
198 226 197 204 197 212 210 201 217 212 217 213 234 239 245 242 243 247 241 262 183 158 197 210 165 134 156 146 155 173 172 172 170 162 152 140 158 171 171 171 169 157 150 152 146 139 130 130 126 120 123 124 128 128 125 126 129 133 133 131 130 124 122 149 149 153 129 118 115 113 116 117 117 114 108 103 97 93 90 87 73 69 74 63 47 40
185 220 232 211 198 204 206 209 213 223 230 176 226 243 245 237 245 273 236 194 81 243 212 191 172 151 142 190 167 164 200 181 155 153 149 149 164 178 172 169 176 155 148 149 149 136 130 130 125 136 131 126 124 126 132 134 135 137 125 123 112 110 98 86 83 80 79 85 93 110 115 117 118 117 115 106 97 97 93 92 87 80 80 66 57 49
194 192 222 212 201 194 209 204 209 225 229 225 206 225 228 261 263 269 284 132 173 251 239 183 182 162 149 211 205 198 183 163 159 167 166 160 172 174 164 170 172 156 149 148 146 139 137 132 134 135 131 131 128 130 131 136 130 122 121 113 101 88 86 82 76 74 71 69 69 70 78 96 113 113 108 108 110 107 106 110 96 85 74 55 46 49
208 196 205 213 196 200 196 212 198 217 223 227 228 206 164 235 162 232 220 246 174 204 222 175 149 142 208 181 192 197 168 167 166 166 167 162 166 167 164 168 173 160 150 149 143 144 141 140 145 140 137 132 135 137 139 130 119 112 106 107 104 96 88 84 83 80 74 70 67 70 69 67 78 85 90 92 91 92 97 84 83 80 72 57 50 42
238 200 192 216 184 200 197 201 178 212 211 209 218 173 177 173 187 202 244 163 25 311 31 158 141 199 169 222 176 178 180 166 158 163 161 160 162 165 163 165 168 156 151 145 145 147 142 143 149 143 140 139 141 142 135 126 119 116 112 107 102 101 92 85 76 75 74 71 73 72 73 71 72 75 80 85 93 93 80 82 87 82 83 73 62 56
164 203 191 201 206 176 210 207 188 202 177 208 221 169 163 159 158 191 152 183 189 207 260 215 113 239 167 263 185 172 149 145 143 145 146 149 152 156 155 156 154 151 150 146 147 148 143 148 150 146 143 146 147 145 131 127 125 121 118 113 106 99 84 74 72 71 71 70 72 73 76 75 73 75 79 81 81 72 79 85 87 82 81 82 68 65
206 255 181 202 215 173 202 210 197 183 159 202 195 117 185 231 134 143 200 115 159 152 260 227 165 317 135 11 86 102 113 110 122 135 143 149 151 152 156 161 163 154 149 145 142 145 144 148 149 146 147 153 154 142 134 130 131 129 127 117 107 98 90 86 81 79 80 79 78 75 79 81 83 82 82 84 77 68 81 89 91 92 92 93 86 76
178 241 163 188 216 177 210 198 223 164 191 217 193 210 204 201 111 117 142 115 117 68 256 162 13 49 76 26 76 118 117 121 128 140 149 152 153 156 159 158 158 154 148 145 147 145 145 147 151 149 152 157 144 139 138 138 137 133 122 116 107 97 87 83 84 82 81 81 80 76 79 85 86 86 89 93 80 82 93 92 96 110 124 110 103 95
140 234 182 184 196 234 172 206 236 210 157 148 205 234 177 273 124 134 178 142 135 140 251 108 136 161 112 190 266 130 124 134 140 149 152 150 149 153 151 153 153 150 150 149 146 143 148 149 151 150 155 151 143 140 140 138 133 122 123 119 112 103 98 91 89 89 88 94 93 91 88 85 92 98 99 100 100 102 100 99 102 100 96 108 108 94
139 229 207 177 154 171 32 181 314 277 272 163 196 180 178 201 228 302 110 175 147 168 277 225 156 176 161 153 160 160 148 150 149 148 149 157 156 153 150 151 148 147 148 151 149 145 150 155 153 154 152 149 142 139 138 133 125 122 116 113 110 109 108 106 98 95 94 96 103 108 110 113 110 116 127 119 109 105 103 106 108 104 103 84 75 78
168 127 280 154 152 136 229 123 215 268 288 255 152 166 179 128 168 135 196 164 118 221 110 288 148 220 199 162 167 171 163 162 152 158 166 165 162 157 155 155 153 154 154 154 151 151 151 157 152 151 151 150 146 139 135 127 125 121 119 115 112 107 106 107 108 114 117 115 117 121 125 131 140 141 130 119 113 107 109 111 107 98 84 85 78 76
163 132 261 188 160 122 226 211 209 201 199 243 195 180 172 222 192 144 224 158 156 164 171 191 283 264 217 168 163 169 168 169 165 167 166 167 168 163 159 158 156 156 157 157 156 153 154 153 150 150 152 145 140 137 130 130 128 123 121 122 122 125 128 127 138 145 146 139 132 129 130 129 128 123 118 112 110 111 114 109 102 96 94 79 78 81
99 124 163 166 172 177 210 214 209 206 205 198 152 201 168 189 235 189 270 269 152 126 190 169 235 266 286 175 164 169 171 168 169 163 164 168 170 160 158 155 154 154 156 155 154 151 150 149 149 149 147 143 142 143 133 132 129 127 131 130 131 131 139 144 160 162 147 136 129 130 129 119 110 106 106 106 105 103 101 96 94 97 88 88 81 77
137 156 102 167 208 196 209 198 214 223 225 205 165 218 180 174 137 123 132 230 157 220 148 162 142 280 239 245 156 161 167 168 172 162 161 165 164 154 151 149 148 150 152 152 151 150 148 150 145 148 150 148 150 143 135 137 134 135 135 135 138 139 144 156 161 139 130 123 126 124 117 115 113 113 110 108 107 107 104 97 93 92 99 98 93 83
116 90 135 192 199 167 197 195 194 229 253 234 199 196 164 189 190 164 168 187 171 191 161 118 141 255 283 51 138 149 157 165 164 161 158 159 149 144 145 145 144 145 147 146 148 151 149 145 141 149 151 151 152 142 142 138 137 138 139 141 142 145 152 161 149 136 126 125 121 120 117 115 116 115 118 120 124 122 121 115 112 108 100 101 95 90
287 165 105 140 113 17 172 299 215 237 244 219 170 216 207 205 191 204 222 49 165 230 146 132 166 253 268 100 137 142 147 148 157 162 151 149 141 143 145 145 145 146 148 151 154 155 150 144 149 153 154 154 154 146 144 141 141 144 145 144 148 149 157 157 145 138 136 134 128 123 119 119 119 119 119 120 118 118 118 117 110 93 87 83 81 82
124 188 132 133 157 164 188 192 197 202 213 258 207 204 223 235 212 191 212 17 140 271 152 106 158 265 294 63 141 144 141 140 148 150 149 146 144 145 146 147 147 150 153 154 155 156 156 150 148 153 156 158 157 147 147 145 145 146 147 148 147 150 156 159 144 141 139 133 129 126 122 123 122 123 123 121 120 119 118 114 110 106 97 94 91 85
124 233 161 141 160 192 214 191 71 173 157 215 251 208 211 234 192 125 134 101 188 209 85 200 154 111 333 50 144 153 144 138 141 143 147 149 144 144 146 148 152 155 155 157 157 154 149 150 153 155 158 160 156 148 151 151 153 154 150 148 152 155 159 155 144 141 135 132 129 127 127 128 129 128 125 125 125 122 117 116 116 111 108 102 96 92
76 320 254 216 251 199 176 204 168 181 197 211 221 242 209 212 229 132 127 201 185 89 228 206 139 133 207 226 180 160 150 142 147 150 147 146 145 144 150 147 147 149 152 153 156 156 156 155 153 156 160 160 159 150 154 155 160 155 150 154 155 158 157 153 145 140 135 134 130 131 132 133 133 131 129 121 113 110 109 107 106 111 113 111 107 104
135 176 276 227 280 284 274 222 176 181 206 199 225 217 188 201 227 160 181 220 122 135 160 197 152 153 191 195 153 164 154 157 161 158 156 151 143 138 143 149 154 156 156 157 159 156 156 158 158 158 160 163 160 159 156 160 155 145 151 149 146 151 151 146 141 139 137 135 136 138 137 134 130 126 122 117 112 107 102 101 100 98 101 107 108 105
68 252 269 179 274 288 275 272 196 184 185 191 211 221 191 186 221 165 188 217 159 153 151 164 166 171 166 168 138 158 154 144 138 129 130 140 149 148 149 152 155 158 160 161 160 160 161 160 161 161 163 163 166 166 157 157 152 149 151 147 144 147 147 142 142 143 142 142 142 139 137 133 128 126 122 119 120 119 115 108 102 96 97 101 102 102
90 294 249 302 341 276 259 274 230 178 167 194 197 227 202 186 209 197 179 162 87 91 146 140 128 195 254 147 124 124 120 110 120 139 149 146 145 149 151 154 157 160 161 160 161 162 162 163 165 164 164 163 166 172 152 153 154 148 144 144 146 147 148 144 147 145 144 144 142 139 135 131 130 127 127 128 125 122 117 113 109 104 102 102 103 100
142 251 6 53 311 278 305 358 341 228 171 178 188 211 215 177 192 205 179 195 129 171 144 124 126 189 264 141 119 124 133 136 143 146 144 151 153 149 152 157 159 162 163 164 164 162 164 166 167 167 166 162 165 170 149 151 149 145 146 146 149 150 148 146 147 144 144 144 142 140 137 136 134 133 133 128 123 119 117 114 109 108 108 109 108 107
148 113 44 327 244 276 291 27 311 58 54 84 244 220 192 182 154 176 188 154 170 145 120 146 205 216 164 151 130 136 141 145 143 148 149 152 157 157 160 163 165 166 166 164 166 168 167 168 168 167 166 160 167 160 147 149 146 146 148 149 150 149 148 146 147 145 146 148 146 144 141 140 139 140 136 132 128 123 121 118 116 115 115 118 122 119
143 142 175 193 134 246 306 0 4 46 55 234 246 288 201 179 163 144 210 174 201 135 198 177 185 130 125 145 138 154 146 159 163 169 159 157 159 166 166 166 168 167 165 166 167 168 169 166 167 168 168 162 162 154 147 150 145 142 144 145 148 149 150 147 149 150 151 150 148 146 144 143 143 141 138 133 127 124 121 121 121 120 118 114 116 124
117 128 217 262 92 266 339 37 35 33 218 242 271 289 56 52 73 187 194 169 156 133 119 125 132 113 160 151 157 164 168 162 154 151 164 163 159 164 168 168 168 167 167 166 167 171 171 167 163 165 165 162 152 152 146 143 139 142 146 151 151 150 150 151 151 154 154 150 149 146 146 146 141 139 136 129 125 122 123 123 121 118 119 117 120 124
154 155 100 336 127 20 40 59 83 243 242 287 304 335 31 75 68 56 352 225 155 153 142 142 200 165 150 172 162 166 152 141 142 156 161 167 166 163 162 169 169 166 168 170 167 168 169 165 161 164 164 156 144 152 151 148 147 148 152 151 150 151 152 153 154 155 153 150 151 149 147 143 140 137 131 128 127 129 133 134 135 133 131 120 117 115
156 118 94 310 98 137 181 125 198 311 333 332 354 353 61 109 60 119 150 285 248 188 155 175 189 233 148 157 169 158 143 133 132 167 174 167 171 169 165 166 165 170 166 163 163 163 163 156 158 164 157 155 153 149 148 151 149 147 149 151 152 153 154 155 156 156 153 151 149 146 144 142 139 134 132 132 135 139 140 136 131 128 124 119 120 114
148 170 193 104 295 113 126 76 9 12 241 275 253 266 213 139 107 153 102 306 313 338 178 155 171 204 214 146 171 170 139 124 146 186 184 175 164 159 157 153 155 153 155 155 154 154 156 157 161 164 153 157 150 142 146 149 147 146 148 150 153 153 157 156 158 156 151 151 148 144 143 141 138 136 135 136 140 139 136 131 127 128 127 126 124 114
192 147 114 150 227 64 112 130 200 170 244 213 233 249 275 185 101 84 60 292 273 336 86 169 191 189 198 176 177 144 138 163 188 187 182 160 162 157 153 154 154 155 154 155 155 156 157 158 161 156 151 158 149 147 146 145 144 145 150 154 155 157 158 159 157 156 152 149 145 142 140 138 136 136 136 136 139 138 137 137 139 138 130 132 128 130
151 184 80 66 283 198 140 149 223 212 193 271 242 239 241 71 80 64 163 263 276 344 341 162 187 194 201 177 148 158 166 177 190 199 169 164 162 158 156 157 151 150 154 154 153 154 156 157 157 154 161 159 153 149 147 146 147 149 153 157 157 159 160 160 159 152 144 140 140 139 137 138 137 137 138 140 139 140 142 143 136 142 143 145 143 142
147 303 130 192 195 271 288 248 47 300 282 251 190 190 176 66 78 91 190 235 287 334 334 330 228 200 168 140 148 171 218 191 175 158 151 139 137 146 152 154 154 151 153 156 155 152 156 162 160 159 162 154 148 150 148 147 148 153 157 158 159 162 160 156 148 143 141 139 136 137 137 136 138 137 139 142 143 143 140 139 144 150 150 145 142 141
161 129 221 139 172 210 221 140 204 223 240 242 120 118 112 61 233 202 236 215 332 348 323 317 255 221 158 151 151 138 166 150 140 142 145 156 158 153 148 142 142 144 149 150 152 154 157 161 154 154 153 150 151 151 151 150 152 154 158 159 162 161 153 146 142 139 138 137 138 136 135 135 135 136 138 140 136 135 139 151 149 144 134 138 138 142
197 148 203 178 228 234 55 165 71 106 277 98 101 51 53 118 224 218 322 343 49 14 3 338 330 235 120 103 116 128 121 125 139 146 150 145 144 148 151 148 152 153 153 151 155 159 157 161 154 156 151 152 151 151 153 153 153 155 155 158 159 152 146 142 141 140 138 137 136 136 136 137 137 137 139 138 138 139 147 142 128 134 136 135 137 145
192 129 190 228 164 156 161 162 184 221 241 338 97 152 201 156 199 210 110 355 330 48 37 42 24 99 121 125 130 123 125 121 130 138 141 147 144 142 147 145 146 147 151 156 157 158 157 157 151 149 151 154 153 155 157 153 155 154 154 157 155 144 141 140 141 138 134 134 134 134 136 136 136 135 138 140 139 140 139 131 134 134 135 141 146 161
301 149 169 157 209 122 195 173 270 279 76 48 78 113 118 66 37 29 88 80 53 355 346 85 80 54 98 125 122 122 121 138 146 149 147 153 150 147 151 155 157 156 155 157 155 157 160 158 153 148 152 155 156 159 156 150 152 152 154 159 149 146 144 144 138 134 134 136 137 137 138 133 135 138 138 142 140 143 140 136 136 137 152 149 160 167
278 192 230 84 355 81 73 147 107 30 32 45 49 71 70 36 19 45 54 45 15 14 26 98 108 99 78 89 105 100 129 141 138 146 141 146 152 150 145 147 148 147 148 151 149 157 158 154 154 152 155 158 160 152 158 152 152 154 156 152 147 145 145 139 134 135 139 139 140 141 138 135 138 138 141 140 142 145 146 144 146 154 167 160 172 171
27 6 40 106 172 74 105 359 79 27 348 28 50 43 59 60 47 34 39 33 29 22 18 23 95 106 106 98 110 119 125 133 131 138 129 134 146 149 149 150 153 154 156 158 155 158 157 158 161 160 158 163 158 149 155 148 148 146 145 149 147 144 142 138 138 139 140 143 143 142 140 141 144 143 144 143 141 141 148 158 159 165 173 175 181 189
341 4 51 95 110 113 169 106 113 141 163 178 48 33 79 79 51 37 46 44 35 24 22 11 48 74 81 82 102 117 133 127 130 138 132 136 148 150 150 151 152 153 158 156 157 161 156 162 165 159 160 161 157 149 148 147 147 146 148 147 146 143 139 141 144 145 147 147 145 143 146 145 149 146 145 152 146 151 165 181 181 159 157 181 186 171
245 306 110 244 102 41 52 29 42 58 25 29 85 70 74 78 76 24 3 28 59 36 12 21 47 84 90 109 95 107 122 129 138 141 133 134 145 148 148 153 154 155 154 157 163 163 160 165 165 161 159 157 157 150 146 149 148 151 151 151 149 144 142 144 143 144 146 147 144 147 148 149 152 151 147 148 149 147 171 187 132 117 115 55 179 148
49 26 309 34 63 26 158 215 93 95 17 354 41 80 76 73 82 63 329 13 55 59 42 51 35 65 86 99 110 109 127 137 139 135 139 136 146 142 140 144 151 153 157 158 165 161 159 165 160 163 158 153 154 151 151 153 151 154 154 152 149 145 145 146 146 148 151 150 148 148 149 154 158 157 154 139 128 111 60 27 123 151 135 115 77 92
57 320 64 92 140 177 236 222 183 143 128 115 105 78 81 64 68 56 40 83 53 55 77 78 50 49 70 61 95 113 133 140 148 137 140 140 138 144 145 145 151 155 156 159 160 158 158 160 158 154 145 152 151 154 155 154 153 155 156 153 150 148 148 148 149 151 152 151 155 157 158 160 161 165 147 137 134 117 115 110 34 33 97 134 128 112